Time,TemperatureF,DewpointF,PressureIn,WindDirection,WindDirectionDegrees,WindSpeedMPH,WindSpeedGustMPH,Humidity,HourlyPrecipIn,Conditions,Clouds,dailyrainin,SoftwareType,DateUTC
2013-12-01 00:02:00,45.2,33.7,30.21,SSE,167,0.0,0.0,64,0.00,CLR,,0.00,WeatherDisplay:10.37,2013-12-01 06:02:00,
2013-12-01 00:07:00,44.9,33.5,30.21,SSE,167,0.0,0.0,64,0.00,CLR,,0.00,WeatherDisplay:10.37,2013-12-01 06:07:00,
2013-12-01 00:12:00,44.5,33.5,30.21,SSE,167,2.3,2.3,65,0.00,CLR,,0.00,WeatherDisplay:10.37,2013-12-01 06:12:00,
2013-12-01 00:17:00,44.0,33.4,30.21,SSE,167,0.0,0.0,66,0.00,CLR,,0.00,WeatherDisplay:10.37,2013-12-01 06:17:00,
2013-12-01 00:22:00,43.7,33.1,30.20,SSE,167,0.0,0.0,66,0.00,CLR,,0.00,WeatherDisplay:10.37,2013-12-01 06:22:00,
2013-12-01 00:27:00,43.4,32.8,30.21,SSE,167,0.0,0.0,66,0.00,CLR,,0.00,WeatherDisplay:10.37,2013-12-01 06:27:00,
2013-12-01 00:32:00,43.1,32.9,30.21,SSE,167,0.0,0.0,67,0.00,CLR,,0.00,WeatherDisplay:10.37,2013-12-01 06:32:00,
2013-12-01 00:37:00,42.8,33.0,30.21,SSE,167,0.0,0.0,68,0.00,CLR,,0.00,WeatherDisplay:10.37,2013-12-01 06:37:00,
2013-12-01 00:42:00,42.5,32.7,30.21,SSE,167,0.0,0.0,68,0.00,CLR,,0.00,WeatherDisplay:10.37,2013-12-01 06:42:00,
2013-12-01 00:47:00,42.2,32.8,30.21,SSE,167,0.0,0.0,69,0.00,CLR,,0.00,WeatherDisplay:10.37,2013-12-01 06:47:00,
2013-12-01 00:52:00,41.8,32.7,30.21,SSE,167,0.0,0.0,70,0.00,CLR,,0.00,WeatherDisplay:10.37,2013-12-01 06:52:00,
2013-12-01 00:57:00,41.5,32.8,30.21,SSE,167,0.0,0.0,71,0.00,CLR,,0.00,WeatherDisplay:10.37,2013-12-01 06:57:00,
2013-12-01 01:02:00,41.2,32.5,30.21,SSE,167,0.0,0.0,71,0.00,CLR,,0.00,WeatherDisplay:10.37,2013-12-01 07:02:00,
2013-12-01 01:07:00,41.0,32.7,30.21,SSE,167,0.0,0.0,72,0.00,CLR,,0.00,WeatherDisplay:10.37,2013-12-01 07:07:00,
2013-12-01 01:12:00,40.7,32.4,30.21,SSE,167,0.0,0.0,72,0.00,CLR,,0.00,WeatherDisplay:10.37,2013-12-01 07:12:00,
2013-12-01 01:17:00,40.5,32.5,30.21,SSE,167,0.0,0.0,73,0.00,CLR,,0.00,WeatherDisplay:10.37,2013-12-01 07:17:00,
2013-12-01 01:22:00,40.4,32.8,30.21,SSE,167,0.0,0.0,74,0.00,CLR,,0.00,WeatherDisplay:10.37,2013-12-01 07:22:00,
2013-12-01 01:27:00,40.3,32.7,30.21,SSE,167,0.0,0.0,74,0.00,CLR,,0.00,WeatherDisplay:10.37,2013-12-01 07:27:00,
2013-12-01 01:32:00,40.1,32.8,30.21,SSE,167,0.0,0.0,75,0.00,CLR,,0.00,WeatherDisplay:10.37,2013-12-01 07:32:00,
2013-12-01 01:37:00,39.9,32.6,30.21,SSE,167,0.0,0.0,75,0.00,CLR,,0.00,WeatherDisplay:10.37,2013-12-01 07:37:00,
2013-12-01 01:42:00,39.8,32.8,30.21,SSE,167,0.0,0.0,76,0.00,CLR,,0.00,WeatherDisplay:10.37,2013-12-01 07:42:00,
2013-12-01 01:47:00,39.8,33.2,30.21,SSE,167,0.0,0.0,77,0.00,CLR,,0.00,WeatherDisplay:10.37,2013-12-01 07:47:00,
2013-12-01 01:52:00,39.9,33.6,30.21,SSE,167,0.0,0.0,78,0.00,CLR,,0.00,WeatherDisplay:10.37,2013-12-01 07:52:00,
2013-12-01 01:57:00,39.9,33.6,30.21,SSE,167,0.0,0.0,78,0.00,CLR,,0.00,WeatherDisplay:10.37,2013-12-01 07:57:00,
2013-12-01 02:02:00,40.0,34.0,30.20,SSE,167,0.0,0.0,79,0.00,CLR,,0.00,WeatherDisplay:10.37,2013-12-01 08:02:00,
2013-12-01 02:07:00,40.3,34.3,30.20,SSE,167,0.0,0.0,79,0.00,CLR,,0.00,WeatherDisplay:10.37,2013-12-01 08:07:00,
2013-12-01 02:12:00,40.5,34.8,30.21,SSE,167,0.0,0.0,80,0.00,CLR,,0.00,WeatherDisplay:10.37,2013-12-01 08:12:00,
2013-12-01 02:17:00,40.7,35.0,30.21,SSE,167,0.0,0.0,80,0.00,CLR,,0.00,WeatherDisplay:10.37,2013-12-01 08:17:00,
2013-12-01 02:22:00,41.0,35.3,30.20,SSE,167,0.0,0.0,80,0.00,CLR,,0.00,WeatherDisplay:10.37,2013-12-01 08:22:00,
2013-12-01 02:27:00,41.2,35.5,30.21,SSE,167,0.0,0.0,80,0.00,CLR,,0.00,WeatherDisplay:10.37,2013-12-01 08:27:00,
2013-12-01 02:32:00,41.5,35.8,30.21,SSE,167,0.0,0.0,80,0.00,CLR,,0.00,WeatherDisplay:10.37,2013-12-01 08:32:00,
2013-12-01 02:37:00,41.7,36.0,30.20,SSE,167,0.0,0.0,80,0.00,CLR,,0.00,WeatherDisplay:10.37,2013-12-01 08:37:00,
2013-12-01 02:42:00,42.0,36.3,30.20,SSE,167,0.0,0.0,80,0.00,CLR,,0.00,WeatherDisplay:10.37,2013-12-01 08:42:00,
2013-12-01 02:47:00,42.2,36.2,30.20,SSE,167,0.0,0.0,79,0.00,CLR,,0.00,WeatherDisplay:10.37,2013-12-01 08:47:00,
2013-12-01 02:52:00,42.4,36.7,30.20,SSE,167,0.0,0.0,80,0.00,CLR,,0.00,WeatherDisplay:10.37,2013-12-01 08:52:00,
2013-12-01 02:57:00,42.6,36.5,30.20,SSE,167,0.0,0.0,79,0.00,CLR,,0.00,WeatherDisplay:10.37,2013-12-01 08:57:00,
2013-12-01 03:01:00,42.6,36.5,30.20,SSE,167,0.0,0.0,79,0.00,CLR,,0.00,WeatherDisplay:10.37,2013-12-01 09:01:00,
2013-12-01 03:06:00,42.7,36.3,30.20,SSE,167,0.0,0.0,78,0.00,CLR,,0.00,WeatherDisplay:10.37,2013-12-01 09:06:00,
2013-12-01 03:11:00,42.9,35.9,30.20,SSE,167,0.0,0.0,76,0.00,CLR,,0.00,WeatherDisplay:10.37,2013-12-01 09:11:00,
2013-12-01 03:16:00,43.1,35.7,30.20,SSE,167,0.0,0.0,75,0.00,CLR,,0.00,WeatherDisplay:10.37,2013-12-01 09:16:00,
2013-12-01 03:21:00,43.3,35.9,30.20,SSE,167,0.0,0.0,75,0.00,CLR,,0.00,WeatherDisplay:10.37,2013-12-01 09:21:00,
2013-12-01 03:26:00,43.4,36.0,30.20,SSE,167,0.0,0.0,75,0.00,CLR,,0.00,WeatherDisplay:10.37,2013-12-01 09:26:00,
2013-12-01 03:31:00,43.6,36.2,30.19,SSE,167,0.0,0.0,75,0.00,CLR,,0.00,WeatherDisplay:10.37,2013-12-01 09:31:00,
2013-12-01 03:36:00,43.7,36.0,30.19,SSE,167,0.0,0.0,74,0.00,CLR,,0.00,WeatherDisplay:10.37,2013-12-01 09:36:00,
2013-12-01 03:41:00,43.8,36.0,30.19,SSE,167,0.0,0.0,74,0.00,CLR,,0.00,WeatherDisplay:10.37,2013-12-01 09:41:00,
2013-12-01 03:46:00,43.9,36.1,30.18,SSE,167,0.0,0.0,74,0.00,CLR,,0.00,WeatherDisplay:10.37,2013-12-01 09:46:00,
2013-12-01 03:51:00,44.1,36.0,30.18,SSE,167,0.0,0.0,73,0.00,CLR,,0.00,WeatherDisplay:10.37,2013-12-01 09:51:00,
2013-12-01 03:56:00,44.3,35.5,30.18,SSE,167,0.0,0.0,71,0.00,CLR,,0.00,WeatherDisplay:10.37,2013-12-01 09:56:00,
2013-12-01 04:01:00,44.6,35.8,30.18,SSE,167,0.0,0.0,71,0.00,CLR,,0.00,WeatherDisplay:10.37,2013-12-01 10:01:00,
2013-12-01 04:06:00,44.8,35.6,30.18,SSE,167,0.0,0.0,70,0.00,CLR,,0.00,WeatherDisplay:10.37,2013-12-01 10:06:00,
2013-12-01 04:11:00,45.0,35.4,30.18,SSE,165,1.2,0.0,69,0.00,CLR,,0.00,WeatherDisplay:10.37,2013-12-01 10:11:00,
2013-12-01 04:16:00,45.2,35.3,30.18,SSE,166,0.0,0.0,68,0.00,CLR,,0.00,WeatherDisplay:10.37,2013-12-01 10:16:00,
2013-12-01 04:21:00,45.5,35.2,30.18,SSE,166,0.0,0.0,67,0.00,CLR,,0.00,WeatherDisplay:10.37,2013-12-01 10:21:00,
2013-12-01 04:26:00,45.7,35.0,30.18,SSE,164,0.0,0.0,66,0.00,CLR,,0.00,WeatherDisplay:10.37,2013-12-01 10:26:00,
2013-12-01 04:31:00,46.0,35.3,30.18,SSE,164,0.0,0.0,66,0.00,CLR,,0.00,WeatherDisplay:10.37,2013-12-01 10:31:00,
2013-12-01 04:36:00,46.1,34.6,30.18,SSE,164,0.0,0.0,64,0.00,CLR,,0.00,WeatherDisplay:10.37,2013-12-01 10:36:00,
2013-12-01 04:41:00,46.3,34.8,30.18,SSE,148,1.2,0.0,64,0.00,CLR,,0.00,WeatherDisplay:10.37,2013-12-01 10:41:00,
2013-12-01 04:46:00,46.4,34.9,30.18,SSE,148,0.0,0.0,64,0.00,CLR,,0.00,WeatherDisplay:10.37,2013-12-01 10:46:00,
2013-12-01 04:51:00,46.6,35.1,30.18,SSE,148,0.0,0.0,64,0.00,CLR,,0.00,WeatherDisplay:10.37,2013-12-01 10:51:00,
2013-12-01 04:56:00,46.7,34.8,30.18,SSE,148,0.0,0.0,63,0.00,CLR,,0.00,WeatherDisplay:10.37,2013-12-01 10:56:00,
2013-12-01 05:01:00,46.8,35.3,30.18,SSE,148,0.0,0.0,64,0.00,CLR,,0.00,WeatherDisplay:10.37,2013-12-01 11:01:00,
2013-12-01 05:06:00,46.8,35.3,30.18,SSE,148,0.0,0.0,64,0.00,CLR,,0.00,WeatherDisplay:10.37,2013-12-01 11:06:00,
2013-12-01 05:11:00,46.9,35.0,30.18,SSE,148,0.0,0.0,63,0.00,CLR,,0.00,WeatherDisplay:10.37,2013-12-01 11:11:00,
2013-12-01 05:16:00,47.0,35.4,30.18,SSE,148,0.0,0.0,64,0.00,CLR,,0.00,WeatherDisplay:10.37,2013-12-01 11:16:00,
2013-12-01 05:21:00,47.0,35.4,30.18,SSE,148,0.0,0.0,64,0.00,CLR,,0.00,WeatherDisplay:10.37,2013-12-01 11:21:00,
2013-12-01 05:26:00,47.1,35.1,30.18,SSE,148,0.0,0.0,63,0.00,CLR,,0.00,WeatherDisplay:10.37,2013-12-01 11:26:00,
2013-12-01 05:31:00,47.1,35.5,30.18,SSE,148,0.0,0.0,64,0.00,CLR,,0.00,WeatherDisplay:10.37,2013-12-01 11:31:00,
2013-12-01 05:36:00,47.2,35.2,30.17,SSE,148,0.0,0.0,63,0.00,CLR,,0.00,WeatherDisplay:10.37,2013-12-01 11:36:00,
2013-12-01 05:41:00,47.2,34.8,30.18,SSE,148,0.0,0.0,62,0.00,CLR,,0.00,WeatherDisplay:10.37,2013-12-01 11:41:00,
2013-12-01 05:46:00,47.3,34.9,30.17,SSE,148,0.0,0.0,62,0.00,CLR,,0.00,WeatherDisplay:10.37,2013-12-01 11:46:00,
2013-12-01 05:51:00,47.4,34.2,30.17,SSE,148,0.0,0.4,60,0.00,CLR,,0.00,WeatherDisplay:10.37,2013-12-01 11:51:00,
2013-12-01 05:56:00,47.8,34.6,30.17,SSE,149,0.0,0.0,60,0.00,CLR,,0.00,WeatherDisplay:10.37,2013-12-01 11:56:00,
2013-12-01 06:01:00,48.2,34.1,30.17,SSE,149,1.2,1.2,58,0.00,CLR,,0.00,WeatherDisplay:10.37,2013-12-01 12:01:00,
2013-12-01 06:06:00,48.6,34.0,30.17,SSE,150,3.5,3.5,57,0.00,CLR,,0.00,WeatherDisplay:10.37,2013-12-01 12:06:00,
2013-12-01 06:11:00,49.0,34.4,30.16,SSE,150,0.0,0.0,57,0.00,CLR,,0.00,WeatherDisplay:10.37,2013-12-01 12:11:00,
2013-12-01 06:16:00,49.2,34.2,30.17,SSE,149,2.0,2.0,56,0.00,CLR,,0.00,WeatherDisplay:10.37,2013-12-01 12:16:00,
2013-12-01 06:21:00,49.2,34.2,30.17,SSE,150,0.0,0.0,56,0.00,CLR,,0.00,WeatherDisplay:10.37,2013-12-01 12:21:00,
2013-12-01 06:26:00,49.3,34.3,30.17,SSE,150,0.0,0.0,56,0.00,CLR,,0.00,WeatherDisplay:10.37,2013-12-01 12:26:00,
2013-12-01 06:31:00,49.3,34.3,30.17,SSE,150,0.0,0.0,56,0.00,CLR,,0.00,WeatherDisplay:10.37,2013-12-01 12:31:00,
2013-12-01 06:36:00,49.4,33.9,30.17,SSE,150,1.2,0.0,55,0.00,CLR,,0.00,WeatherDisplay:10.37,2013-12-01 12:36:00,
2013-12-01 06:41:00,49.4,33.9,30.17,SSE,150,1.2,0.0,55,0.00,CLR,,0.00,WeatherDisplay:10.37,2013-12-01 12:41:00,
2013-12-01 06:46:00,49.5,34.0,30.17,SSE,150,0.0,0.0,55,0.00,CLR,,0.00,WeatherDisplay:10.37,2013-12-01 12:46:00,
2013-12-01 06:51:00,49.5,34.4,30.17,SSE,150,1.2,1.2,56,0.00,CLR,,0.00,WeatherDisplay:10.37,2013-12-01 12:51:00,
2013-12-01 06:56:00,49.5,34.0,30.17,SSE,150,0.0,0.0,55,0.00,CLR,,0.00,WeatherDisplay:10.37,2013-12-01 12:56:00,
2013-12-01 07:01:00,49.5,34.4,30.17,SSE,150,1.2,0.0,56,0.00,CLR,,0.00,WeatherDisplay:10.37,2013-12-01 13:01:00,
2013-12-01 07:06:00,49.5,34.4,30.17,SSE,150,0.0,0.0,56,0.00,CLR,,0.00,WeatherDisplay:10.37,2013-12-01 13:06:00,
2013-12-01 07:11:00,49.5,34.4,30.17,SSE,152,0.0,0.0,56,0.00,CLR,,0.00,WeatherDisplay:10.37,2013-12-01 13:11:00,
2013-12-01 07:16:00,49.4,34.3,30.17,SSE,152,0.0,0.0,56,0.00,CLR,,0.00,WeatherDisplay:10.37,2013-12-01 13:16:00,
2013-12-01 07:21:00,49.4,34.3,30.17,SSE,152,1.2,1.2,56,0.00,CLR,,0.00,WeatherDisplay:10.37,2013-12-01 13:21:00,
2013-12-01 07:26:00,49.3,34.3,30.17,SSE,163,2.0,2.0,56,0.00,CLR,,0.00,WeatherDisplay:10.37,2013-12-01 13:26:00,
2013-12-01 07:31:00,49.3,34.3,30.17,SSE,155,2.3,2.3,56,0.00,CLR,,0.00,WeatherDisplay:10.37,2013-12-01 13:31:00,
2013-12-01 07:36:00,49.2,34.2,30.17,SSE,167,3.5,3.5,56,0.00,CLR,,0.00,WeatherDisplay:10.37,2013-12-01 13:36:00,
2013-12-01 07:41:00,49.2,34.6,30.17,SSE,167,1.2,1.2,57,0.00,CLR,,0.00,WeatherDisplay:10.37,2013-12-01 13:41:00,
2013-12-01 07:46:00,49.3,34.3,30.17,South,169,3.5,3.5,56,0.00,CLR,,0.00,WeatherDisplay:10.37,2013-12-01 13:46:00,
2013-12-01 07:51:00,49.3,34.7,30.17,South,169,1.2,1.2,57,0.00,CLR,,0.00,WeatherDisplay:10.37,2013-12-01 13:51:00,
2013-12-01 07:56:00,49.4,34.8,30.17,South,169,1.2,1.2,57,0.00,CLR,,0.00,WeatherDisplay:10.37,2013-12-01 13:56:00,
2013-12-01 08:01:00,49.4,34.8,30.17,South,169,1.2,0.0,57,0.00,CLR,,0.00,WeatherDisplay:10.37,2013-12-01 14:01:00,
2013-12-01 08:06:00,49.5,34.9,30.17,South,169,2.3,2.3,57,0.00,CLR,,0.00,WeatherDisplay:10.37,2013-12-01 14:06:00,
2013-12-01 08:11:00,49.6,35.0,30.17,South,169,0.0,0.0,57,0.00,CLR,,0.00,WeatherDisplay:10.37,2013-12-01 14:11:00,
2013-12-01 08:16:00,49.7,35.1,30.17,South,169,0.0,0.0,57,0.00,CLR,,0.00,WeatherDisplay:10.37,2013-12-01 14:16:00,
2013-12-01 08:21:00,49.8,35.6,30.17,South,169,0.0,0.0,58,0.00,CLR,,0.00,WeatherDisplay:10.37,2013-12-01 14:21:00,
2013-12-01 08:26:00,50.0,35.8,30.17,South,171,3.5,0.0,58,0.00,CLR,,0.00,WeatherDisplay:10.37,2013-12-01 14:26:00,
2013-12-01 08:31:00,50.1,35.9,30.17,South,171,0.0,0.0,58,0.00,CLR,,0.00,WeatherDisplay:10.37,2013-12-01 14:31:00,
2013-12-01 08:36:00,50.3,36.1,30.17,South,171,1.2,0.0,58,0.00,CLR,,0.00,WeatherDisplay:10.37,2013-12-01 14:36:00,
2013-12-01 08:41:00,50.4,36.2,30.17,South,171,1.2,1.2,58,0.00,CLR,,0.00,WeatherDisplay:10.37,2013-12-01 14:41:00,
2013-12-01 08:46:00,50.5,36.3,30.17,South,171,2.3,2.3,58,0.00,CLR,,0.00,WeatherDisplay:10.37,2013-12-01 14:46:00,
2013-12-01 08:51:00,50.6,36.4,30.17,South,169,0.0,0.0,58,0.00,CLR,,0.00,WeatherDisplay:10.37,2013-12-01 14:51:00,
2013-12-01 08:56:00,50.6,36.4,30.17,South,170,2.3,2.3,58,0.00,CLR,,0.00,WeatherDisplay:10.37,2013-12-01 14:56:00,
2013-12-01 09:01:00,50.7,36.5,30.17,South,170,1.2,1.2,58,0.00,CLR,,0.00,WeatherDisplay:10.37,2013-12-01 15:01:00,
2013-12-01 09:06:00,50.8,37.0,30.17,SSE,156,0.0,0.0,59,0.00,CLR,,0.00,WeatherDisplay:10.37,2013-12-01 15:06:00,
2013-12-01 09:11:00,50.9,37.1,30.17,SSE,156,0.0,0.1,59,0.00,CLR,,0.00,WeatherDisplay:10.37,2013-12-01 15:11:00,
2013-12-01 09:16:00,51.0,37.2,30.17,SSE,156,0.0,0.0,59,0.00,CLR,,0.00,WeatherDisplay:10.37,2013-12-01 15:16:00,
2013-12-01 09:21:00,51.1,37.3,30.17,SSE,156,0.0,0.2,59,0.00,CLR,,0.00,WeatherDisplay:10.37,2013-12-01 15:21:00,
2013-12-01 09:26:00,51.2,36.9,30.17,SSE,156,1.2,0.0,58,0.00,CLR,,0.00,WeatherDisplay:10.37,2013-12-01 15:26:00,
2013-12-01 09:31:00,51.3,37.4,30.17,SSE,156,1.2,0.0,59,0.00,CLR,,0.00,WeatherDisplay:10.37,2013-12-01 15:31:00,
2013-12-01 09:36:00,51.5,37.6,30.17,SSE,160,0.0,1.0,59,0.00,CLR,,0.00,WeatherDisplay:10.37,2013-12-01 15:36:00,
2013-12-01 09:41:00,51.6,37.7,30.17,SSE,160,1.2,0.0,59,0.00,CLR,,0.00,WeatherDisplay:10.37,2013-12-01 15:41:00,
2013-12-01 09:46:00,51.8,37.9,30.17,SSE,160,0.0,0.0,59,0.00,CLR,,0.00,WeatherDisplay:10.37,2013-12-01 15:46:00,
2013-12-01 09:51:00,52.0,38.1,30.17,SSE,160,1.2,1.2,59,0.00,CLR,,0.00,WeatherDisplay:10.37,2013-12-01 15:51:00,
2013-12-01 09:56:00,52.2,38.3,30.16,South,172,1.2,1.2,59,0.00,CLR,,0.00,WeatherDisplay:10.37,2013-12-01 15:56:00,
2013-12-01 10:01:00,52.3,38.0,30.16,South,172,3.5,3.5,58,0.00,CLR,,0.00,WeatherDisplay:10.37,2013-12-01 16:01:00,
2013-12-01 10:06:00,52.5,38.1,30.16,SSE,159,2.3,2.8,58,0.00,CLR,,0.00,WeatherDisplay:10.37,2013-12-01 16:06:00,
2013-12-01 10:11:00,52.6,38.2,30.16,SSW,205,3.5,3.5,58,0.00,CLR,,0.00,WeatherDisplay:10.37,2013-12-01 16:11:00,
2013-12-01 10:16:00,52.6,38.2,30.16,SSW,205,1.2,1.2,58,0.00,CLR,,0.00,WeatherDisplay:10.37,2013-12-01 16:16:00,
2013-12-01 10:21:00,52.8,38.4,30.16,SSW,196,3.5,3.5,58,0.00,CLR,,0.00,WeatherDisplay:10.37,2013-12-01 16:21:00,
2013-12-01 10:26:00,52.9,38.5,30.16,SSW,192,3.5,3.5,58,0.00,CLR,,0.00,WeatherDisplay:10.37,2013-12-01 16:26:00,
2013-12-01 10:31:00,53.0,38.6,30.15,SE,142,1.2,1.2,58,0.00,CLR,,0.00,WeatherDisplay:10.37,2013-12-01 16:31:00,
2013-12-01 10:37:00,53.2,38.8,30.14,SE,143,1.2,1.2,58,0.00,CLR,,0.00,WeatherDisplay:10.37,2013-12-01 16:37:00,
2013-12-01 10:42:00,53.3,38.9,30.14,SE,144,2.3,2.3,58,0.00,CLR,,0.00,WeatherDisplay:10.37,2013-12-01 16:42:00,
2013-12-01 10:47:00,53.5,39.1,30.14,South,169,3.5,3.5,58,0.00,CLR,,0.00,WeatherDisplay:10.37,2013-12-01 16:47:00,
2013-12-01 10:52:00,53.6,39.2,30.13,South,169,1.2,1.2,58,0.00,CLR,,0.00,WeatherDisplay:10.37,2013-12-01 16:52:00,
2013-12-01 10:57:00,53.7,39.3,30.13,SSE,168,2.3,2.3,58,0.00,CLR,,0.00,WeatherDisplay:10.37,2013-12-01 16:57:00,
2013-12-01 11:02:00,53.9,39.9,30.13,South,171,4.0,4.0,59,0.00,CLR,,0.00,WeatherDisplay:10.37,2013-12-01 17:02:00,
2013-12-01 11:07:00,54.0,39.5,30.12,South,171,1.2,0.0,58,0.00,CLR,,0.00,WeatherDisplay:10.37,2013-12-01 17:07:00,
2013-12-01 11:12:00,54.2,39.7,30.12,SSW,192,5.0,5.0,58,0.00,CLR,,0.00,WeatherDisplay:10.37,2013-12-01 17:12:00,
2013-12-01 11:17:00,54.3,40.3,30.12,South,184,3.5,0.0,59,0.00,CLR,,0.00,WeatherDisplay:10.37,2013-12-01 17:17:00,
2013-12-01 11:22:00,54.5,40.5,30.12,South,178,3.5,3.5,59,0.00,CLR,,0.00,WeatherDisplay:10.37,2013-12-01 17:22:00,
2013-12-01 11:27:00,54.7,40.6,30.11,South,186,0.0,0.0,59,0.00,CLR,,0.00,WeatherDisplay:10.37,2013-12-01 17:27:00,
2013-12-01 11:32:00,55.0,40.5,30.11,South,180,2.3,2.3,58,0.00,CLR,,0.00,WeatherDisplay:10.37,2013-12-01 17:32:00,
2013-12-01 11:37:00,55.4,41.3,30.11,SSW,199,3.5,3.5,59,0.00,CLR,,0.00,WeatherDisplay:10.37,2013-12-01 17:37:00,
2013-12-01 11:42:00,56.1,41.5,30.10,South,172,3.5,3.5,58,0.00,CLR,,0.00,WeatherDisplay:10.37,2013-12-01 17:42:00,
2013-12-01 11:47:00,56.7,41.6,30.10,SSE,164,3.0,3.0,57,0.00,CLR,,0.00,WeatherDisplay:10.37,2013-12-01 17:47:00,
2013-12-01 11:52:00,57.3,42.2,30.10,SSW,194,8.1,8.1,57,0.00,CLR,,0.00,WeatherDisplay:10.37,2013-12-01 17:52:00,
2013-12-01 11:57:00,57.5,42.4,30.09,SW,219,3.5,3.5,57,0.00,CLR,,0.00,WeatherDisplay:10.37,2013-12-01 17:57:00,
2013-12-01 12:02:00,57.7,42.6,30.09,SSE,159,3.5,3.5,57,0.00,CLR,,0.00,WeatherDisplay:10.37,2013-12-01 18:02:00,
2013-12-01 12:07:00,57.8,42.7,30.08,South,181,5.8,5.8,57,0.00,CLR,,0.00,WeatherDisplay:10.37,2013-12-01 18:07:00,
2013-12-01 12:12:00,57.7,43.0,30.08,SSW,203,6.9,6.9,58,0.00,CLR,,0.00,WeatherDisplay:10.37,2013-12-01 18:12:00,
2013-12-01 12:17:00,57.6,42.9,30.08,SSW,192,1.2,1.2,58,0.00,CLR,,0.00,WeatherDisplay:10.37,2013-12-01 18:17:00,
2013-12-01 12:22:00,57.9,43.2,30.08,South,179,3.5,3.5,58,0.00,CLR,,0.00,WeatherDisplay:10.37,2013-12-01 18:22:00,
2013-12-01 12:27:00,58.0,42.8,30.08,South,169,3.5,3.5,57,0.00,CLR,,0.00,WeatherDisplay:10.37,2013-12-01 18:27:00,
2013-12-01 12:32:00,57.9,43.2,30.07,South,175,3.5,0.0,58,0.00,CLR,,0.00,WeatherDisplay:10.37,2013-12-01 18:32:00,
2013-12-01 12:37:00,57.8,43.1,30.07,SSW,212,4.6,4.6,58,0.00,CLR,,0.00,WeatherDisplay:10.37,2013-12-01 18:37:00,
2013-12-01 12:42:00,57.9,43.7,30.07,SSW,202,3.5,3.5,59,0.00,CLR,,0.00,WeatherDisplay:10.37,2013-12-01 18:42:00,
2013-12-01 12:47:00,58.1,43.4,30.06,South,186,2.3,2.3,58,0.00,CLR,,0.00,WeatherDisplay:10.37,2013-12-01 18:47:00,
2013-12-01 12:52:00,58.4,43.7,30.06,South,176,4.6,4.6,58,0.00,CLR,,0.00,WeatherDisplay:10.37,2013-12-01 18:52:00,
2013-12-01 12:57:00,58.6,44.3,30.06,South,173,3.5,3.5,59,0.00,CLR,,0.00,WeatherDisplay:10.37,2013-12-01 18:57:00,
2013-12-01 13:02:00,58.9,45.0,30.06,SSW,211,3.5,3.5,60,0.00,CLR,,0.00,WeatherDisplay:10.37,2013-12-01 19:02:00,
2013-12-01 13:07:00,59.0,45.1,30.06,SSW,203,1.2,0.0,60,0.00,CLR,,0.00,WeatherDisplay:10.37,2013-12-01 19:07:00,
2013-12-01 13:12:00,59.1,45.2,30.05,SW,217,3.5,3.5,60,0.00,CLR,,0.00,WeatherDisplay:10.37,2013-12-01 19:12:00,
2013-12-01 13:17:00,59.3,45.4,30.05,South,186,3.5,3.5,60,0.00,CLR,,0.00,WeatherDisplay:10.37,2013-12-01 19:17:00,
2013-12-01 13:22:00,59.4,45.9,30.05,South,169,5.8,5.8,61,0.00,CLR,,0.00,WeatherDisplay:10.37,2013-12-01 19:22:00,
2013-12-01 13:27:00,59.5,46.0,30.05,SSW,207,3.5,3.5,61,0.00,CLR,,0.00,WeatherDisplay:10.37,2013-12-01 19:27:00,
2013-12-01 13:32:00,59.4,46.4,30.04,SSW,202,3.5,3.5,62,0.00,CLR,,0.00,WeatherDisplay:10.37,2013-12-01 19:32:00,
2013-12-01 13:37:00,59.6,46.6,30.04,South,190,4.6,4.6,62,0.00,CLR,,0.00,WeatherDisplay:10.37,2013-12-01 19:37:00,
2013-12-01 13:38:00,59.6,46.6,30.04,South,190,5.8,5.8,62,0.00,CLR,,0.00,WeatherDisplay:10.37,2013-12-01 19:38:00,
2013-12-01 13:43:00,59.9,46.4,30.04,South,175,4.6,4.6,61,0.00,CLR,,0.00,WeatherDisplay:10.37,2013-12-01 19:43:00,
2013-12-01 13:48:00,59.9,46.4,30.04,SSW,213,4.6,4.6,61,0.00,CLR,,0.00,WeatherDisplay:10.37,2013-12-01 19:48:00,
2013-12-01 13:53:00,59.9,46.4,30.03,SSE,167,4.6,4.6,61,0.00,CLR,,0.00,WeatherDisplay:10.37,2013-12-01 19:53:00,
2013-12-01 13:58:00,60.1,46.6,30.03,SSW,206,5.0,5.0,61,0.00,CLR,,0.00,WeatherDisplay:10.37,2013-12-01 19:58:00,
2013-12-01 14:03:00,60.4,46.9,30.02,South,174,2.0,2.0,61,0.00,CLR,,0.00,WeatherDisplay:10.37,2013-12-01 20:03:00,
2013-12-01 14:08:00,60.7,47.2,30.02,South,182,4.6,4.6,61,0.00,CLR,,0.00,WeatherDisplay:10.37,2013-12-01 20:08:00,
2013-12-01 14:13:00,60.9,46.9,30.02,South,170,3.5,3.5,60,0.00,CLR,,0.00,WeatherDisplay:10.37,2013-12-01 20:13:00,
2013-12-01 14:18:00,61.0,47.0,30.02,South,174,4.6,4.6,60,0.00,CLR,,0.00,WeatherDisplay:10.37,2013-12-01 20:18:00,
2013-12-01 14:23:00,61.2,47.2,30.02,SSW,205,3.5,3.5,60,0.00,CLR,,0.00,WeatherDisplay:10.37,2013-12-01 20:23:00,
2013-12-01 14:28:00,61.2,47.2,30.01,SSW,194,2.3,2.3,60,0.00,CLR,,0.00,WeatherDisplay:10.37,2013-12-01 20:28:00,
2013-12-01 14:33:00,61.1,47.1,30.01,SSW,195,1.2,0.0,60,0.00,CLR,,0.00,WeatherDisplay:10.37,2013-12-01 20:33:00,
2013-12-01 14:38:00,61.0,47.0,30.01,South,180,5.8,5.8,60,0.00,CLR,,0.00,WeatherDisplay:10.37,2013-12-01 20:38:00,
2013-12-01 14:43:00,60.8,47.3,30.01,South,188,1.2,1.2,61,0.00,CLR,,0.00,WeatherDisplay:10.37,2013-12-01 20:43:00,
2013-12-01 14:48:00,60.8,46.8,30.01,South,178,3.5,3.5,60,0.00,CLR,,0.00,WeatherDisplay:10.37,2013-12-01 20:48:00,
2013-12-01 14:53:00,60.6,47.1,30.01,South,187,3.5,3.5,61,0.00,CLR,,0.00,WeatherDisplay:10.37,2013-12-01 20:53:00,
2013-12-01 14:58:00,60.4,46.9,30.01,SSW,204,4.6,4.6,61,0.00,CLR,,0.00,WeatherDisplay:10.37,2013-12-01 20:58:00,
2013-12-01 15:03:00,60.3,46.8,30.01,SSW,197,3.5,3.5,61,0.00,CLR,,0.00,WeatherDisplay:10.37,2013-12-01 21:03:00,
2013-12-01 15:08:00,60.2,46.7,30.01,South,178,5.8,5.8,61,0.00,CLR,,0.00,WeatherDisplay:10.37,2013-12-01 21:08:00,
2013-12-01 15:13:00,60.1,47.0,30.01,South,175,4.6,4.6,62,0.00,CLR,,0.00,WeatherDisplay:10.37,2013-12-01 21:13:00,
2013-12-01 15:18:00,60.1,47.0,30.00,South,180,3.5,3.5,62,0.00,CLR,,0.00,WeatherDisplay:10.37,2013-12-01 21:18:00,
2013-12-01 15:23:00,60.0,46.9,30.01,South,184,3.5,3.5,62,0.00,CLR,,0.00,WeatherDisplay:10.37,2013-12-01 21:23:00,
2013-12-01 15:28:00,59.9,47.3,30.01,South,184,2.3,2.3,63,0.00,CLR,,0.00,WeatherDisplay:10.37,2013-12-01 21:28:00,
2013-12-01 15:33:00,59.8,47.2,30.00,South,172,3.5,3.5,63,0.00,CLR,,0.00,WeatherDisplay:10.37,2013-12-01 21:33:00,
2013-12-01 15:38:00,59.6,46.6,30.00,SSW,196,3.5,3.5,62,0.00,CLR,,0.00,WeatherDisplay:10.37,2013-12-01 21:38:00,
2013-12-01 15:43:00,59.5,46.5,30.00,South,190,2.3,2.3,62,0.00,CLR,,0.00,WeatherDisplay:10.37,2013-12-01 21:43:00,
2013-12-01 15:48:00,59.4,46.8,30.00,South,183,3.5,3.5,63,0.00,CLR,,0.00,WeatherDisplay:10.37,2013-12-01 21:48:00,
2013-12-01 15:53:00,59.3,46.3,30.00,South,175,3.5,3.5,62,0.00,CLR,,0.00,WeatherDisplay:10.37,2013-12-01 21:53:00,
2013-12-01 15:58:00,59.2,46.2,30.00,South,179,1.2,1.3,62,0.00,CLR,,0.00,WeatherDisplay:10.37,2013-12-01 21:58:00,
2013-12-01 16:03:00,59.0,46.4,30.00,South,179,1.2,0.0,63,0.00,CLR,,0.00,WeatherDisplay:10.37,2013-12-01 22:03:00,
2013-12-01 16:08:00,59.0,46.4,30.00,South,186,4.6,4.6,63,0.00,CLR,,0.00,WeatherDisplay:10.37,2013-12-01 22:08:00,
2013-12-01 16:13:00,59.0,46.4,30.00,South,188,1.2,1.2,63,0.00,CLR,,0.00,WeatherDisplay:10.37,2013-12-01 22:13:00,
2013-12-01 16:18:00,58.7,46.5,30.00,South,180,3.5,3.5,64,0.00,CLR,,0.00,WeatherDisplay:10.37,2013-12-01 22:18:00,
2013-12-01 16:23:00,58.5,46.4,30.00,South,179,2.3,2.3,64,0.00,CLR,,0.00,WeatherDisplay:10.37,2013-12-01 22:23:00,
2013-12-01 16:28:00,58.3,46.6,30.00,SSW,201,3.5,0.0,65,0.00,CLR,,0.00,WeatherDisplay:10.37,2013-12-01 22:28:00,
2013-12-01 16:33:00,58.2,46.5,30.00,SSW,197,3.5,3.5,65,0.00,CLR,,0.00,WeatherDisplay:10.37,2013-12-01 22:33:00,
2013-12-01 16:38:00,58.2,46.5,30.00,South,180,3.5,3.5,65,0.00,CLR,,0.00,WeatherDisplay:10.37,2013-12-01 22:38:00,
2013-12-01 16:43:00,58.1,46.4,30.00,South,186,3.5,3.5,65,0.00,CLR,,0.00,WeatherDisplay:10.37,2013-12-01 22:43:00,
2013-12-01 16:48:00,58.1,46.4,29.99,South,171,1.2,0.0,65,0.00,CLR,,0.00,WeatherDisplay:10.37,2013-12-01 22:48:00,
2013-12-01 16:53:00,58.0,46.3,29.99,South,171,0.0,0.0,65,0.00,CLR,,0.00,WeatherDisplay:10.37,2013-12-01 22:53:00,
2013-12-01 16:58:00,57.9,46.2,29.99,South,171,2.3,0.0,65,0.00,CLR,,0.00,WeatherDisplay:10.37,2013-12-01 22:58:00,
2013-12-01 17:03:00,57.8,46.1,29.99,South,171,0.0,0.0,65,0.00,CLR,,0.00,WeatherDisplay:10.37,2013-12-01 23:03:00,
2013-12-01 17:08:00,57.8,46.1,29.99,South,171,0.0,0.0,65,0.00,CLR,,0.00,WeatherDisplay:10.37,2013-12-01 23:08:00,
2013-12-01 17:13:00,57.7,46.4,29.99,South,175,3.5,3.5,66,0.00,CLR,,0.00,WeatherDisplay:10.37,2013-12-01 23:13:00,
2013-12-01 17:18:00,57.6,45.9,29.99,SSE,164,3.5,3.5,65,0.00,CLR,,0.00,WeatherDisplay:10.37,2013-12-01 23:18:00,
2013-12-01 17:23:00,57.5,45.8,29.99,SSE,148,0.0,0.0,65,0.00,CLR,,0.00,WeatherDisplay:10.37,2013-12-01 23:23:00,
2013-12-01 17:28:00,57.3,45.6,29.99,SSE,163,1.2,1.2,65,0.00,CLR,,0.00,WeatherDisplay:10.37,2013-12-01 23:28:00,
2013-12-01 17:33:00,57.1,45.4,29.99,SSE,166,3.5,3.5,65,0.00,CLR,,0.00,WeatherDisplay:10.37,2013-12-01 23:33:00,
2013-12-01 17:39:00,56.9,44.8,29.99,South,190,5.8,5.8,64,0.00,CLR,,0.00,WeatherDisplay:10.37,2013-12-01 23:39:00,
2013-12-01 17:44:00,56.7,44.7,29.99,SSE,163,3.5,3.5,64,0.00,CLR,,0.00,WeatherDisplay:10.37,2013-12-01 23:44:00,
2013-12-01 17:49:00,56.5,44.5,29.99,South,180,2.3,2.3,64,0.00,CLR,,0.00,WeatherDisplay:10.37,2013-12-01 23:49:00,
2013-12-01 17:54:00,56.4,44.4,29.99,South,172,0.0,0.0,64,0.00,CLR,,0.00,WeatherDisplay:10.37,2013-12-01 23:54:00,
2013-12-01 17:59:00,56.3,44.3,29.99,South,179,3.5,3.5,64,0.00,CLR,,0.00,WeatherDisplay:10.37,2013-12-01 23:59:00,
2013-12-01 18:04:00,56.2,44.2,29.98,SSE,153,3.5,3.5,64,0.00,CLR,,0.00,WeatherDisplay:10.37,2013-12-02 00:04:00,
2013-12-01 18:09:00,56.1,44.1,29.99,South,175,3.5,3.5,64,0.00,CLR,,0.00,WeatherDisplay:10.37,2013-12-02 00:09:00,
2013-12-01 18:14:00,56.0,44.0,29.99,SSW,208,4.6,4.6,64,0.00,CLR,,0.00,WeatherDisplay:10.37,2013-12-02 00:14:00,
2013-12-01 18:19:00,55.9,43.9,29.99,SSW,208,5.8,5.8,64,0.00,CLR,,0.00,WeatherDisplay:10.37,2013-12-02 00:19:00,
2013-12-01 18:24:00,55.7,43.3,29.99,SSE,165,4.6,4.6,63,0.00,CLR,,0.00,WeatherDisplay:10.37,2013-12-02 00:24:00,
2013-12-01 18:29:00,55.7,43.3,29.99,SSE,168,1.2,1.2,63,0.00,CLR,,0.00,WeatherDisplay:10.37,2013-12-02 00:29:00,
2013-12-01 18:34:00,55.5,43.5,29.99,South,173,3.5,3.5,64,0.00,CLR,,0.00,WeatherDisplay:10.37,2013-12-02 00:34:00,
2013-12-01 18:39:00,55.4,43.0,29.98,South,170,2.3,2.3,63,0.00,CLR,,0.00,WeatherDisplay:10.37,2013-12-02 00:39:00,
2013-12-01 18:44:00,55.3,42.9,29.99,SSE,162,2.3,2.3,63,0.00,CLR,,0.00,WeatherDisplay:10.37,2013-12-02 00:44:00,
2013-12-01 18:49:00,55.2,42.8,29.99,South,182,4.6,4.6,63,0.00,CLR,,0.00,WeatherDisplay:10.37,2013-12-02 00:49:00,
2013-12-01 18:54:00,55.1,42.7,29.99,South,171,3.5,3.5,63,0.00,CLR,,0.00,WeatherDisplay:10.37,2013-12-02 00:54:00,
2013-12-01 18:59:00,55.0,43.0,29.99,South,188,1.2,0.0,64,0.00,CLR,,0.00,WeatherDisplay:10.37,2013-12-02 00:59:00,
2013-12-01 19:04:00,54.9,42.9,29.99,South,190,3.5,3.5,64,0.00,CLR,,0.00,WeatherDisplay:10.37,2013-12-02 01:04:00,
2013-12-01 19:09:00,54.8,42.9,29.99,South,188,3.5,3.5,64,0.00,CLR,,0.00,WeatherDisplay:10.37,2013-12-02 01:09:00,
2013-12-01 19:14:00,54.8,42.9,29.99,SSW,193,3.5,3.5,64,0.00,CLR,,0.00,WeatherDisplay:10.37,2013-12-02 01:14:00,
2013-12-01 19:19:00,54.7,42.8,29.99,South,188,1.2,1.2,64,0.00,CLR,,0.00,WeatherDisplay:10.37,2013-12-02 01:19:00,
2013-12-01 19:24:00,54.6,42.7,29.99,South,190,1.2,0.0,64,0.00,CLR,,0.00,WeatherDisplay:10.37,2013-12-02 01:24:00,
2013-12-01 19:29:00,54.6,42.7,29.99,South,173,3.5,3.5,64,0.00,CLR,,0.00,WeatherDisplay:10.37,2013-12-02 01:29:00,
2013-12-01 19:34:00,54.6,42.7,29.98,South,172,2.3,2.3,64,0.00,CLR,,0.00,WeatherDisplay:10.37,2013-12-02 01:34:00,
2013-12-01 19:39:00,54.6,42.7,29.98,SSW,192,3.5,3.5,64,0.00,CLR,,0.00,WeatherDisplay:10.37,2013-12-02 01:39:00,
2013-12-01 19:44:00,54.5,42.6,29.98,SSW,193,0.0,0.0,64,0.00,CLR,,0.00,WeatherDisplay:10.37,2013-12-02 01:44:00,
2013-12-01 19:49:00,54.5,42.6,29.99,SSW,193,1.2,0.0,64,0.00,CLR,,0.00,WeatherDisplay:10.37,2013-12-02 01:49:00,
2013-12-01 19:54:00,54.4,42.5,29.98,SSW,198,3.5,3.5,64,0.00,CLR,,0.00,WeatherDisplay:10.37,2013-12-02 01:54:00,
2013-12-01 19:59:00,54.4,42.5,29.98,South,186,3.5,3.5,64,0.00,CLR,,0.00,WeatherDisplay:10.37,2013-12-02 01:59:00,
2013-12-01 20:04:00,54.4,42.5,29.98,SSW,192,3.5,3.5,64,0.00,CLR,,0.00,WeatherDisplay:10.37,2013-12-02 02:04:00,
2013-12-01 20:09:00,54.3,42.4,29.98,South,186,2.3,2.3,64,0.00,CLR,,0.00,WeatherDisplay:10.37,2013-12-02 02:09:00,
2013-12-01 20:14:00,54.3,42.4,29.98,South,169,1.2,1.2,64,0.00,CLR,,0.00,WeatherDisplay:10.37,2013-12-02 02:14:00,
2013-12-01 20:19:00,54.2,42.3,29.97,SSE,165,3.5,3.5,64,0.00,CLR,,0.00,WeatherDisplay:10.37,2013-12-02 02:19:00,
2013-12-01 20:24:00,54.2,42.3,29.97,SSE,163,2.3,2.3,64,0.00,CLR,,0.00,WeatherDisplay:10.37,2013-12-02 02:24:00,
2013-12-01 20:29:00,54.2,42.3,29.97,SSE,163,2.3,2.3,64,0.00,CLR,,0.00,WeatherDisplay:10.37,2013-12-02 02:29:00,
2013-12-01 20:34:00,54.2,42.3,29.97,SSE,163,3.5,3.5,64,0.00,CLR,,0.00,WeatherDisplay:10.37,2013-12-02 02:34:00,
2013-12-01 20:39:00,54.1,42.2,29.97,SSE,160,2.3,2.3,64,0.00,CLR,,0.00,WeatherDisplay:10.37,2013-12-02 02:39:00,
2013-12-01 20:44:00,54.1,42.2,29.97,SSE,163,2.3,2.3,64,0.00,CLR,,0.00,WeatherDisplay:10.37,2013-12-02 02:44:00,
2013-12-01 20:49:00,54.1,42.6,29.97,SSE,164,3.0,3.0,65,0.00,CLR,,0.00,WeatherDisplay:10.37,2013-12-02 02:49:00,
2013-12-01 20:54:00,54.1,42.6,29.96,South,173,4.6,4.6,65,0.00,CLR,,0.00,WeatherDisplay:10.37,2013-12-02 02:54:00,
2013-12-01 20:59:00,54.0,42.5,29.96,South,178,4.6,4.6,65,0.00,CLR,,0.00,WeatherDisplay:10.37,2013-12-02 02:59:00,
2013-12-01 21:04:00,54.0,42.5,29.96,South,169,3.5,3.5,65,0.00,CLR,,0.00,WeatherDisplay:10.37,2013-12-02 03:04:00,
2013-12-01 21:09:00,54.0,42.5,29.96,South,169,3.5,3.5,65,0.00,CLR,,0.00,WeatherDisplay:10.37,2013-12-02 03:09:00,
2013-12-01 21:14:00,53.9,42.4,29.96,South,172,3.5,3.5,65,0.00,CLR,,0.00,WeatherDisplay:10.37,2013-12-02 03:14:00,
2013-12-01 21:19:00,53.9,42.4,29.96,South,172,1.2,0.0,65,0.00,CLR,,0.00,WeatherDisplay:10.37,2013-12-02 03:19:00,
2013-12-01 21:24:00,53.9,42.4,29.96,South,173,2.0,2.0,65,0.00,CLR,,0.00,WeatherDisplay:10.37,2013-12-02 03:24:00,
2013-12-01 21:29:00,53.9,42.8,29.96,South,172,0.0,0.0,66,0.00,CLR,,0.00,WeatherDisplay:10.37,2013-12-02 03:29:00,
2013-12-01 21:34:00,53.9,42.8,29.96,South,173,0.0,0.0,66,0.00,CLR,,0.00,WeatherDisplay:10.37,2013-12-02 03:34:00,
2013-12-01 21:39:00,53.9,42.8,29.96,South,173,1.2,0.0,66,0.00,CLR,,0.00,WeatherDisplay:10.37,2013-12-02 03:39:00,
2013-12-01 21:44:00,53.9,42.8,29.96,South,173,1.2,1.2,66,0.00,CLR,,0.00,WeatherDisplay:10.37,2013-12-02 03:44:00,
2013-12-01 21:49:00,53.8,42.7,29.96,South,173,0.0,0.0,66,0.00,CLR,,0.00,WeatherDisplay:10.37,2013-12-02 03:49:00,
2013-12-01 21:54:00,53.8,42.7,29.95,South,173,0.0,0.0,66,0.00,CLR,,0.00,WeatherDisplay:10.37,2013-12-02 03:54:00,
2013-12-01 21:59:00,53.8,42.7,29.96,South,173,1.2,0.0,66,0.00,CLR,,0.00,WeatherDisplay:10.37,2013-12-02 03:59:00,
2013-12-01 22:04:00,53.8,43.1,29.95,South,173,1.0,0.0,67,0.00,CLR,,0.00,WeatherDisplay:10.37,2013-12-02 04:04:00,
2013-12-01 22:09:00,53.7,43.0,29.95,South,176,3.5,3.5,67,0.00,CLR,,0.00,WeatherDisplay:10.37,2013-12-02 04:09:00,
2013-12-01 22:14:00,53.7,43.0,29.95,South,177,1.0,1.0,67,0.00,CLR,,0.00,WeatherDisplay:10.37,2013-12-02 04:14:00,
2013-12-01 22:19:00,53.7,43.0,29.94,South,177,0.0,0.0,67,0.00,CLR,,0.00,WeatherDisplay:10.37,2013-12-02 04:19:00,
2013-12-01 22:24:00,53.7,43.0,29.94,South,176,2.0,2.0,67,0.00,CLR,,0.00,WeatherDisplay:10.37,2013-12-02 04:24:00,
2013-12-01 22:29:00,53.7,43.0,29.94,South,176,1.2,1.2,67,0.00,CLR,,0.00,WeatherDisplay:10.37,2013-12-02 04:29:00,
2013-12-01 22:34:00,53.7,43.0,29.94,South,176,1.2,0.0,67,0.00,CLR,,0.00,WeatherDisplay:10.37,2013-12-02 04:34:00,
2013-12-01 22:39:00,53.7,43.0,29.94,South,176,0.0,0.0,67,0.00,CLR,,0.00,WeatherDisplay:10.37,2013-12-02 04:39:00,
2013-12-01 22:44:00,53.7,43.0,29.94,South,176,0.0,0.0,67,0.00,CLR,,0.00,WeatherDisplay:10.37,2013-12-02 04:44:00,
2013-12-01 22:49:00,53.7,43.0,29.93,South,177,0.0,0.0,67,0.00,CLR,,0.00,WeatherDisplay:10.37,2013-12-02 04:49:00,
2013-12-01 22:54:00,53.7,43.0,29.93,South,176,0.0,0.0,67,0.00,CLR,,0.00,WeatherDisplay:10.37,2013-12-02 04:54:00,
2013-12-01 22:59:00,53.7,43.0,29.94,South,174,0.0,0.0,67,0.00,CLR,,0.00,WeatherDisplay:10.37,2013-12-02 04:59:00,
2013-12-01 23:01:00,53.7,43.0,29.94,South,174,0.0,0.0,67,0.00,CLR,,0.00,WeatherDisplay:10.37,2013-12-02 05:01:00,
2013-12-01 23:02:00,53.7,43.0,29.93,South,174,0.0,0.0,67,0.00,CLR,,0.00,WeatherDisplay:10.37,2013-12-02 05:02:00,
2013-12-01 23:07:00,53.7,42.6,29.93,South,174,1.2,0.0,66,0.00,CLR,,0.00,WeatherDisplay:10.37,2013-12-02 05:07:00,
2013-12-01 23:12:00,53.7,43.0,29.93,South,173,0.0,0.0,67,0.00,CLR,,0.00,WeatherDisplay:10.37,2013-12-02 05:12:00,
2013-12-01 23:17:00,53.7,43.0,29.93,South,174,0.0,0.0,67,0.00,CLR,,0.00,WeatherDisplay:10.37,2013-12-02 05:17:00,
2013-12-01 23:22:00,53.7,43.0,29.93,South,173,0.0,0.0,67,0.00,CLR,,0.00,WeatherDisplay:10.37,2013-12-02 05:22:00,
2013-12-01 23:27:00,53.7,43.0,29.93,South,174,0.0,0.0,67,0.00,CLR,,0.00,WeatherDisplay:10.37,2013-12-02 05:27:00,
2013-12-01 23:32:00,53.7,43.0,29.93,South,174,0.0,0.0,67,0.00,CLR,,0.00,WeatherDisplay:10.37,2013-12-02 05:32:00,
2013-12-01 23:37:00,53.6,42.9,29.93,South,174,0.0,0.0,67,0.00,CLR,,0.00,WeatherDisplay:10.37,2013-12-02 05:37:00,
2013-12-01 23:42:00,53.6,42.9,29.93,South,174,0.0,0.0,67,0.00,CLR,,0.00,WeatherDisplay:10.37,2013-12-02 05:42:00,
2013-12-01 23:47:00,53.6,43.3,29.93,South,174,0.0,0.0,68,0.00,CLR,,0.00,WeatherDisplay:10.37,2013-12-02 05:47:00,
2013-12-01 23:53:00,53.6,43.3,29.93,South,174,0.0,0.0,68,0.00,CLR,,0.00,WeatherDisplay:10.37,2013-12-02 05:53:00,
2013-12-01 23:58:00,53.6,43.3,29.92,South,174,0.0,0.0,68,0.00,CLR,,0.00,WeatherDisplay:10.37,2013-12-02 05:58:00,